DW5759 Weather Reports


Display with metric or nautical units.
time (UTC)temp
F
wind
direction
speed
MPH
gust
MPH
rain 1hr
in
rain 24hr
in
rain mn
in
humidity
%
barometer
mb
20260831210017 70 270 0.0 0.0 0.00 0.00 0.00 88 1018.3
20260831204518 71 270 0.0 0.0 0.00 0.00 0.00 87 1018.4
20260831203003 71 270 0.0 0.0 0.00 0.00 0.00 86 1018.4
20260831201507 72 270 0.0 0.0 0.00 0.00 0.00 85 1018.4
20260831200010 73 271 0.0 0.0 0.00 0.00 0.00 86 1018.7
20260831194516 73 271 0.0 0.0 0.00 0.00 0.00 85 1018.7
20260831193032 73 179 0.0 0.0 0.00 0.00 0.00 84 1018.8
20260831191524 72 143 0.0 0.0 0.00 0.00 0.00 83 1019.0
20260831190010 72 143 0.0 0.0 0.00 0.00 0.00 81 1019.1
20260831184514 73 143 0.0 0.0 0.00 0.00 0.00 80 1019.3
20260831183036 74 150 0.0 0.0 0.00 0.00 0.00 79 1019.4
20260831181504 74 150 0.0 0.0 0.00 0.00 0.00 79 1019.3
20260831180009 74 188 0.0 0.0 0.00 0.00 0.00 78 1019.4
20260831174510 73 278 0.0 0.0 0.00 0.00 0.00 80 1019.6
20260831173040 73 281 0.0 0.0 0.00 0.00 0.00 80 1020.0
20260831171521 73 281 0.0 0.0 0.00 0.00 0.00 78 1020.2
20260831170029 74 281 0.0 0.0 0.00 0.00 0.00 77 1020.3
20260831164506 74 283 0.0 0.0 0.00 0.00 0.00 76 1020.1
20260831163034 74 132 0.0 0.0 0.00 0.00 0.00 77 1020.2
20260831161519 74 146 0.0 0.0 0.00 0.00 0.00 75 1020.4
20260831160031 73 1 0.0 4.0 0.00 0.00 0.00 77 1020.4
20260831154523 74 356 0.0 0.0 0.00 0.00 0.00 76 1020.5
20260831153032 75 360 0.0 0.0 0.00 0.00 0.00 76 1020.5
20260831151525 75 205 0.0 0.0 0.00 0.00 0.00 76 1020.5
20260831150020 73 304 0.0 0.0 0.00 0.00 0.00 82 1020.6
20260831144530 72 131 0.0 0.0 0.00 0.00 0.00 81 1020.7
20260831143031 72 212 0.0 0.0 0.00 0.00 0.00 82 1020.6
20260831141514 72 149 0.0 0.0 0.00 0.00 0.00 81 1020.5
20260831140029 71 173 0.0 1.0 0.00 0.00 0.00 84 1020.4
20260831134504 69 201 0.0 3.0 0.00 0.00 0.00 86 1020.4
20260831133005 68 194 0.0 0.0 0.00 0.00 0.00 88 1020.5
20260831131510 67 229 0.0 0.0 0.00 0.00 0.00 89 1020.5
20260831130003 66 281 0.0 0.0 0.00 0.00 0.00 91 1020.5
20260831124515 65 285 0.0 0.0 0.00 0.00 0.00 92 1020.8
20260831123007 64 285 0.0 0.0 0.00 0.00 0.00 93 1020.6
20260831121509 63 285 0.0 0.0 0.00 0.00 0.00 93 1020.6
20260831120017 63 285 0.0 0.0 0.00 0.00 0.00 93 1020.5
20260831114504 63 285 0.0 0.0 0.00 0.00 0.00 93 1020.4
20260831113007 62 285 0.0 0.0 0.00 0.00 0.00 93 1020.5
20260831111509 62 285 0.0 0.0 0.00 0.00 0.00 93 1020.2
20260831110019 62 285 0.0 0.0 0.00 0.00 0.00 93 1020.0
20260831104516 62 285 0.0 0.0 0.00 0.00 0.00 93 1019.9
20260831103007 62 285 0.0 0.0 0.00 0.00 0.00 92 1019.7
20260831101505 62 285 0.0 0.0 0.00 0.00 0.00 92 1019.7
20260831100012 62 285 0.0 0.0 0.00 0.00 0.00 92 1019.7
20260831094513 62 285 0.0 0.0 0.00 0.00 0.00 92 1019.4
20260831093032 62 285 0.0 0.0 0.00 0.00 0.00 92 1019.3
20260831091504 62 285 0.0 0.0 0.00 0.00 0.00 92 1019.4
20260831090007 62 285 0.0 0.0 0.00 0.00 0.00 92 1019.2
20260831084507 62 285 0.0 0.0 0.00 0.00 0.00 92 1019.2
20260831083016 62 293 0.0 0.0 0.00 0.00 0.00 92 1019.2
20260831081521 62 293 0.0 0.0 0.00 0.00 0.00 92 1019.2
20260831080003 62 293 0.0 0.0 0.00 0.00 0.00 91 1019.3
20260831074507 62 329 0.0 0.0 0.00 0.00 0.00 91 1019.2
20260831073011 63 329 0.0 0.0 0.00 0.00 0.00 91 1019.2
20260831071517 63 329 0.0 0.0 0.00 0.00 0.00 91 1019.2
20260831070027 64 345 0.0 0.0 0.00 0.00 0.00 90 1019.2
20260831064505 64 345 0.0 0.0 0.00 0.00 0.00 90 1019.0
20260831063010 64 345 0.0 0.0 0.00 0.00 0.00 90 1019.2
20260831061513 64 343 0.0 0.0 0.00 0.00 0.00 90 1019.0
20260831060021 65 336 0.0 0.0 0.00 0.00 0.00 89 1019.1
20260831054527 65 336 0.0 0.0 0.00 0.00 0.00 89 1018.8
20260831053025 65 343 0.0 0.0 0.00 0.00 0.00 88 1018.9
20260831051509 65 316 0.0 0.0 0.00 0.00 0.00 87 1018.8
20260831050018 66 316 0.0 0.0 0.00 0.00 0.00 87 1018.9
20260831044525 67 316 0.0 0.0 0.00 0.00 0.00 86 1018.9
20260831043030 67 316 0.0 0.0 0.00 0.00 0.00 85 1019.0
20260831041509 67 316 0.0 0.0 0.00 0.00 0.00 84 1018.8
20260831040014 68 310 0.0 0.0 0.00 0.00 0.00 84 1018.7
20260831034515 68 306 0.0 0.0 0.00 0.00 0.00 83 1018.8
20260831033035 69 359 0.0 0.0 0.00 0.00 0.00 83 1018.7
20260831031528 70 2 0.0 0.0 0.00 0.00 0.00 81 1018.7
20260831030008 70 2 0.0 0.0 0.00 0.00 0.00 79 1018.8
20260831024518 71 10 0.0 0.0 0.00 0.00 0.00 78 1019.0
20260831023032 71 10 0.0 0.0 0.00 0.00 0.00 77 1018.9
20260831021535 72 348 0.0 0.0 0.00 0.00 0.00 76 1018.6
20260831020055 72 290 0.0 3.0 0.00 0.00 0.00 76 1018.7
20260831014510 72 289 0.0 5.0 0.00 0.00 0.00 74 1018.7
20260831013017 72 300 0.0 4.0 0.00 0.00 0.00 75 1018.5
20260831011528 72 274 0.0 3.0 0.00 0.00 0.00 77 1018.4
20260831010036 72 284 0.0 1.0 0.00 0.00 0.00 77 1018.3
20260831004537 73 307 0.0 0.0 0.00 0.00 0.00 76 1018.0
20260831003014 72 152 0.0 0.0 0.00 0.00 0.00 78 1017.7
20260831001526 72 296 0.0 0.0 0.00 0.00 0.00 80 1017.2
20260831000024 72 307 0.0 4.0 0.00 0.00 0.00 80 1017.3
20260830234541 72 305 0.0 2.0 0.00 0.00 0.00 83 1017.1
20260830233033 72 275 0.0 2.0 0.00 0.00 0.00 88 1017.2
20260830231518 72 278 0.0 0.0 0.00 0.00 0.00 89 1017.2
20260830230008 72 278 0.0 0.0 0.00 0.00 0.00 88 1017.1
20260830224508 73 278 0.0 0.0 0.00 0.00 0.00 87 1017.2
20260830223007 73 271 0.0 0.0 0.00 0.00 0.00 87 1017.1
20260830221512 73 271 0.0 0.0 0.00 0.00 0.00 86 1017.1
20260830220007 73 271 0.0 0.0 0.00 0.00 0.00 86 1017.0
20260830214507 73 271 0.0 0.0 0.00 0.00 0.00 86 1016.9
20260830213005 73 271 0.0 0.0 0.00 0.00 0.00 85 1016.7
20260830211509 74 271 0.0 0.0 0.00 0.00 0.00 84 1016.8